Time,TemperatureF,DewpointF,PressureIn,WindDirection,WindDirectionDegrees,WindSpeedMPH,WindSpeedGustMPH,Humidity,HourlyPrecipIn,Conditions,Clouds,dailyrainin,SoftwareType,DateUTC
2013-01-02 00:03:00,39.0,30.4,30.01,North,-999,-999.0,-999.0,39,0.00,,,0.00,meteohub,2013-01-02 08:03:00,
2013-01-02 00:08:00,39.0,30.4,30.01,North,-999,-999.0,-999.0,39,0.00,,,0.00,meteohub,2013-01-02 08:08:00,
2013-01-02 00:14:00,38.8,30.2,30.01,North,-999,-999.0,-999.0,39,0.00,,,0.00,meteohub,2013-01-02 08:14:00,
2013-01-02 00:19:00,38.8,30.6,30.01,North,-999,-999.0,-999.0,39,0.00,,,0.00,meteohub,2013-01-02 08:19:00,
2013-01-02 00:24:00,38.8,30.6,30.01,North,-999,-999.0,-999.0,39,0.00,,,0.00,meteohub,2013-01-02 08:24:00,
2013-01-02 00:29:00,38.8,30.6,30.01,North,-999,-999.0,-999.0,39,0.00,,,0.00,meteohub,2013-01-02 08:29:00,
2013-01-02 00:34:00,38.8,30.6,30.01,North,-999,-999.0,-999.0,39,0.00,,,0.00,meteohub,2013-01-02 08:34:00,
2013-01-02 00:39:00,38.7,30.4,30.01,North,-999,-999.0,-999.0,39,0.00,,,0.00,meteohub,2013-01-02 08:39:00,
2013-01-02 00:44:00,38.8,30.6,30.01,North,-999,-999.0,-999.0,39,0.00,,,0.00,meteohub,2013-01-02 08:44:00,
2013-01-02 00:49:00,38.8,30.2,30.01,North,-999,-999.0,-999.0,39,0.00,,,0.00,meteohub,2013-01-02 08:49:00,
2013-01-02 00:54:00,38.7,30.0,30.01,North,-999,-999.0,-999.0,39,0.00,,,0.00,meteohub,2013-01-02 08:54:00,
2013-01-02 00:59:00,38.7,30.0,30.01,North,-999,-999.0,-999.0,39,0.00,,,0.00,meteohub,2013-01-02 08:59:00,
2013-01-02 01:05:00,38.5,29.8,30.01,North,-999,-999.0,-999.0,39,0.00,,,0.00,meteohub,2013-01-02 09:05:00,
2013-01-02 01:10:00,38.5,29.8,30.01,North,-999,-999.0,-999.0,39,0.00,,,0.00,meteohub,2013-01-02 09:10:00,
2013-01-02 01:15:00,38.5,29.8,30.01,North,-999,-999.0,-999.0,39,0.00,,,0.00,meteohub,2013-01-02 09:15:00,
2013-01-02 01:20:00,38.3,29.7,30.01,North,-999,-999.0,-999.0,39,0.00,,,0.00,meteohub,2013-01-02 09:20:00,
2013-01-02 01:25:00,38.3,29.7,30.01,North,-999,-999.0,-999.0,39,0.00,,,0.00,meteohub,2013-01-02 09:25:00,
2013-01-02 01:30:00,38.3,29.7,30.01,North,-999,-999.0,-999.0,39,0.00,,,0.00,meteohub,2013-01-02 09:30:00,
2013-01-02 01:35:00,38.3,29.7,30.01,North,-999,-999.0,-999.0,39,0.00,,,0.00,meteohub,2013-01-02 09:35:00,
2013-01-02 01:40:00,38.3,29.7,30.01,North,-999,-999.0,-999.0,39,0.00,,,0.00,meteohub,2013-01-02 09:40:00,
2013-01-02 01:45:00,38.3,29.7,30.01,North,-999,-999.0,-999.0,39,0.00,,,0.00,meteohub,2013-01-02 09:45:00,
2013-01-02 01:50:00,38.1,29.5,30.01,North,-999,-999.0,-999.0,39,0.00,,,0.00,meteohub,2013-01-02 09:50:00,
2013-01-02 01:56:00,38.1,29.5,30.01,North,-999,-999.0,-999.0,39,0.00,,,0.00,meteohub,2013-01-02 09:56:00,
2013-01-02 02:01:00,38.1,29.5,30.01,North,-999,-999.0,-999.0,39,0.00,,,0.00,meteohub,2013-01-02 10:01:00,
2013-01-02 02:06:00,37.9,29.1,30.01,North,-999,-999.0,-999.0,39,0.00,,,0.00,meteohub,2013-01-02 10:06:00,
2013-01-02 02:11:00,37.9,29.1,30.01,North,-999,-999.0,-999.0,39,0.00,,,0.00,meteohub,2013-01-02 10:11:00,
2013-01-02 02:16:00,37.8,28.9,30.01,North,-999,-999.0,-999.0,39,0.00,,,0.00,meteohub,2013-01-02 10:16:00,
2013-01-02 02:21:00,37.6,28.8,30.01,North,-999,-999.0,-999.0,39,0.00,,,0.00,meteohub,2013-01-02 10:21:00,
2013-01-02 02:26:00,37.6,28.8,30.01,North,-999,-999.0,-999.0,39,0.00,,,0.00,meteohub,2013-01-02 10:26:00,
2013-01-02 02:31:00,37.4,28.6,30.01,North,-999,-999.0,-999.0,39,0.00,,,0.00,meteohub,2013-01-02 10:31:00,
2013-01-02 02:37:00,37.2,28.8,30.01,North,-999,-999.0,-999.0,39,0.00,,,0.00,meteohub,2013-01-02 10:37:00,
2013-01-02 02:42:00,37.0,28.6,29.99,North,-999,-999.0,-999.0,39,0.00,,,0.00,meteohub,2013-01-02 10:42:00,
2013-01-02 02:47:00,36.9,28.8,29.99,North,-999,-999.0,-999.0,39,0.00,,,0.00,meteohub,2013-01-02 10:47:00,
2013-01-02 02:52:00,37.0,28.9,29.99,North,-999,-999.0,-999.0,39,0.00,,,0.00,meteohub,2013-01-02 10:52:00,
2013-01-02 02:57:00,37.0,28.9,30.01,North,-999,-999.0,-999.0,39,0.00,,,0.00,meteohub,2013-01-02 10:57:00,
2013-01-02 03:02:00,37.0,28.9,30.01,North,-999,-999.0,-999.0,39,0.00,,,0.00,meteohub,2013-01-02 11:02:00,
2013-01-02 03:07:00,37.0,28.9,30.01,North,-999,-999.0,-999.0,39,0.00,,,0.00,meteohub,2013-01-02 11:07:00,
2013-01-02 03:12:00,36.9,28.8,30.01,North,-999,-999.0,-999.0,39,0.00,,,0.00,meteohub,2013-01-02 11:12:00,
2013-01-02 03:17:00,36.9,28.8,30.01,North,-999,-999.0,-999.0,39,0.00,,,0.00,meteohub,2013-01-02 11:17:00,
2013-01-02 03:22:00,36.7,28.6,30.01,North,-999,-999.0,-999.0,39,0.00,,,0.00,meteohub,2013-01-02 11:22:00,
2013-01-02 03:27:00,36.7,28.6,29.99,North,-999,-999.0,-999.0,39,0.00,,,0.00,meteohub,2013-01-02 11:27:00,
2013-01-02 03:32:00,36.5,28.4,29.99,North,-999,-999.0,-999.0,39,0.00,,,0.00,meteohub,2013-01-02 11:32:00,
2013-01-02 03:37:00,36.5,28.4,29.99,North,-999,-999.0,-999.0,39,0.00,,,0.00,meteohub,2013-01-02 11:37:00,
2013-01-02 03:42:00,36.5,28.8,29.99,North,-999,-999.0,-999.0,39,0.00,,,0.00,meteohub,2013-01-02 11:42:00,
2013-01-02 03:47:00,36.5,28.8,29.99,North,-999,-999.0,-999.0,39,0.00,,,0.00,meteohub,2013-01-02 11:47:00,
2013-01-02 03:52:00,36.3,28.6,29.99,North,-999,-999.0,-999.0,39,0.00,,,0.00,meteohub,2013-01-02 11:52:00,
2013-01-02 03:57:00,36.3,28.6,29.99,North,-999,-999.0,-999.0,39,0.00,,,0.00,meteohub,2013-01-02 11:57:00,
2013-01-02 04:02:00,36.3,28.6,29.99,North,-999,-999.0,-999.0,39,0.00,,,0.00,meteohub,2013-01-02 12:02:00,
2013-01-02 04:07:00,36.3,28.8,29.99,North,-999,-999.0,-999.0,39,0.00,,,0.00,meteohub,2013-01-02 12:07:00,
2013-01-02 04:12:00,36.3,28.8,29.99,North,-999,-999.0,-999.0,39,0.00,,,0.00,meteohub,2013-01-02 12:12:00,
2013-01-02 04:17:00,36.3,28.8,29.99,North,-999,-999.0,-999.0,39,0.00,,,0.00,meteohub,2013-01-02 12:17:00,
2013-01-02 04:22:00,36.1,28.6,29.99,North,-999,-999.0,-999.0,39,0.00,,,0.00,meteohub,2013-01-02 12:22:00,
2013-01-02 04:27:00,36.1,28.6,29.99,North,-999,-999.0,-999.0,39,0.00,,,0.00,meteohub,2013-01-02 12:27:00,
2013-01-02 04:32:00,36.1,28.6,29.99,North,-999,-999.0,-999.0,39,0.00,,,0.00,meteohub,2013-01-02 12:32:00,
2013-01-02 04:37:00,36.1,28.6,29.99,North,-999,-999.0,-999.0,39,0.00,,,0.00,meteohub,2013-01-02 12:37:00,
2013-01-02 04:42:00,36.1,28.6,29.99,North,-999,-999.0,-999.0,39,0.00,,,0.00,meteohub,2013-01-02 12:42:00,
2013-01-02 04:47:00,36.1,28.9,29.99,North,-999,-999.0,-999.0,39,0.00,,,0.00,meteohub,2013-01-02 12:47:00,
2013-01-02 04:52:00,36.1,28.9,29.99,North,-999,-999.0,-999.0,39,0.00,,,0.00,meteohub,2013-01-02 12:52:00,
2013-01-02 04:57:00,36.0,28.4,29.99,North,-999,-999.0,-999.0,39,0.00,,,0.00,meteohub,2013-01-02 12:57:00,
2013-01-02 05:02:00,36.0,28.4,29.99,North,-999,-999.0,-999.0,39,0.00,,,0.00,meteohub,2013-01-02 13:02:00,
2013-01-02 05:07:00,36.0,28.8,29.99,North,-999,-999.0,-999.0,39,0.00,,,0.00,meteohub,2013-01-02 13:07:00,
2013-01-02 05:12:00,36.0,28.8,29.99,North,-999,-999.0,-999.0,39,0.00,,,0.00,meteohub,2013-01-02 13:12:00,
2013-01-02 05:17:00,36.0,28.8,29.99,North,-999,-999.0,-999.0,39,0.00,,,0.00,meteohub,2013-01-02 13:17:00,
2013-01-02 05:22:00,35.8,28.6,29.99,North,-999,-999.0,-999.0,39,0.00,,,0.00,meteohub,2013-01-02 13:22:00,
2013-01-02 05:27:00,35.8,28.6,29.99,North,-999,-999.0,-999.0,39,0.00,,,0.00,meteohub,2013-01-02 13:27:00,
2013-01-02 05:32:00,35.8,28.6,29.99,North,-999,-999.0,-999.0,39,0.00,,,0.00,meteohub,2013-01-02 13:32:00,
2013-01-02 05:37:00,35.8,28.6,29.99,North,-999,-999.0,-999.0,39,0.00,,,0.00,meteohub,2013-01-02 13:37:00,
2013-01-02 05:42:00,35.8,28.6,29.99,North,-999,-999.0,-999.0,39,0.00,,,0.00,meteohub,2013-01-02 13:42:00,
2013-01-02 05:47:00,35.8,28.6,29.99,North,-999,-999.0,-999.0,39,0.00,,,0.00,meteohub,2013-01-02 13:47:00,
2013-01-02 05:52:00,35.8,28.6,29.99,North,-999,-999.0,-999.0,39,0.00,,,0.00,meteohub,2013-01-02 13:52:00,
2013-01-02 05:57:00,35.8,28.9,29.99,North,-999,-999.0,-999.0,39,0.00,,,0.00,meteohub,2013-01-02 13:57:00,
2013-01-02 06:02:00,35.8,28.9,29.99,North,-999,-999.0,-999.0,39,0.00,,,0.00,meteohub,2013-01-02 14:02:00,
2013-01-02 06:07:00,35.8,28.9,29.99,North,-999,-999.0,-999.0,39,0.00,,,0.00,meteohub,2013-01-02 14:07:00,
2013-01-02 06:12:00,35.8,28.9,29.99,North,-999,-999.0,-999.0,39,0.00,,,0.00,meteohub,2013-01-02 14:12:00,
2013-01-02 06:17:00,35.8,28.9,29.99,North,-999,-999.0,-999.0,39,0.00,,,0.00,meteohub,2013-01-02 14:17:00,
2013-01-02 06:22:00,35.8,28.9,29.99,North,-999,-999.0,-999.0,39,0.00,,,0.00,meteohub,2013-01-02 14:22:00,
2013-01-02 06:27:00,35.8,28.9,29.99,North,-999,-999.0,-999.0,39,0.00,,,0.00,meteohub,2013-01-02 14:27:00,
2013-01-02 06:32:00,35.8,28.9,29.99,North,-999,-999.0,-999.0,39,0.00,,,0.00,meteohub,2013-01-02 14:32:00,
2013-01-02 06:37:00,35.8,28.9,29.99,North,-999,-999.0,-999.0,39,0.00,,,0.00,meteohub,2013-01-02 14:37:00,
2013-01-02 06:42:00,35.6,28.8,29.99,North,-999,-999.0,-999.0,39,0.00,,,0.00,meteohub,2013-01-02 14:42:00,
2013-01-02 06:47:00,35.6,28.8,29.99,North,-999,-999.0,-999.0,39,0.00,,,0.00,meteohub,2013-01-02 14:47:00,
2013-01-02 06:52:00,35.6,28.8,29.99,North,-999,-999.0,-999.0,39,0.00,,,0.00,meteohub,2013-01-02 14:52:00,
2013-01-02 06:57:00,35.6,28.8,29.99,North,-999,-999.0,-999.0,38,0.00,,,0.00,meteohub,2013-01-02 14:57:00,
2013-01-02 07:02:00,35.6,28.8,29.99,North,-999,-999.0,-999.0,38,0.00,,,0.00,meteohub,2013-01-02 15:02:00,
2013-01-02 07:07:00,35.6,28.8,29.99,North,-999,-999.0,-999.0,38,0.00,,,0.00,meteohub,2013-01-02 15:07:00,
2013-01-02 07:12:00,35.6,28.8,29.99,North,-999,-999.0,-999.0,38,0.00,,,0.00,meteohub,2013-01-02 15:12:00,
2013-01-02 07:17:00,35.8,28.9,29.99,North,-999,-999.0,-999.0,38,0.00,,,0.00,meteohub,2013-01-02 15:17:00,
2013-01-02 07:22:00,35.8,28.9,29.99,North,-999,-999.0,-999.0,38,0.00,,,0.00,meteohub,2013-01-02 15:22:00,
2013-01-02 07:27:00,35.8,28.9,29.99,North,-999,-999.0,-999.0,38,0.00,,,0.00,meteohub,2013-01-02 15:27:00,
2013-01-02 07:32:00,35.8,28.9,29.99,North,-999,-999.0,-999.0,38,0.00,,,0.00,meteohub,2013-01-02 15:32:00,
2013-01-02 07:37:00,35.8,29.3,29.99,North,-999,-999.0,-999.0,38,0.00,,,0.00,meteohub,2013-01-02 15:37:00,
2013-01-02 07:42:00,36.0,29.5,29.99,North,-999,-999.0,-999.0,38,0.00,,,0.00,meteohub,2013-01-02 15:42:00,
2013-01-02 07:47:00,36.0,29.5,29.99,North,-999,-999.0,-999.0,38,0.00,,,0.00,meteohub,2013-01-02 15:47:00,
2013-01-02 07:52:00,36.1,29.7,29.99,North,-999,-999.0,-999.0,38,0.00,,,0.00,meteohub,2013-01-02 15:52:00,
2013-01-02 07:57:00,36.3,29.8,29.99,North,-999,-999.0,-999.0,38,0.00,,,0.00,meteohub,2013-01-02 15:57:00,
2013-01-02 08:02:00,36.3,29.8,29.99,North,-999,-999.0,-999.0,38,0.00,,,0.00,meteohub,2013-01-02 16:02:00,
2013-01-02 08:07:00,36.5,30.0,29.99,North,-999,-999.0,-999.0,38,0.00,,,0.00,meteohub,2013-01-02 16:07:00,
2013-01-02 08:12:00,36.7,30.2,29.99,North,-999,-999.0,-999.0,38,0.00,,,0.00,meteohub,2013-01-02 16:12:00,
2013-01-02 08:17:00,36.7,30.2,29.99,North,-999,-999.0,-999.0,38,0.00,,,0.00,meteohub,2013-01-02 16:17:00,
2013-01-02 08:22:00,36.7,30.2,29.99,North,-999,-999.0,-999.0,38,0.00,,,0.00,meteohub,2013-01-02 16:22:00,
2013-01-02 08:27:00,36.9,30.4,29.99,North,-999,-999.0,-999.0,38,0.00,,,0.00,meteohub,2013-01-02 16:27:00,
2013-01-02 08:32:00,37.0,30.6,29.99,North,-999,-999.0,-999.0,38,0.00,,,0.00,meteohub,2013-01-02 16:32:00,
2013-01-02 08:37:00,37.2,30.9,29.99,North,-999,-999.0,-999.0,38,0.00,,,0.00,meteohub,2013-01-02 16:37:00,
2013-01-02 08:42:00,37.4,30.9,29.99,North,-999,-999.0,-999.0,38,0.00,,,0.00,meteohub,2013-01-02 16:42:00,
2013-01-02 08:47:00,37.8,31.3,29.99,North,-999,-999.0,-999.0,38,0.00,,,0.00,meteohub,2013-01-02 16:47:00,
2013-01-02 08:52:00,37.9,31.5,29.99,North,-999,-999.0,-999.0,38,0.00,,,0.00,meteohub,2013-01-02 16:52:00,
2013-01-02 08:57:00,38.1,31.6,29.99,North,-999,-999.0,-999.0,38,0.00,,,0.00,meteohub,2013-01-02 16:57:00,
2013-01-02 09:02:00,38.7,32.4,29.99,North,-999,-999.0,-999.0,38,0.00,,,0.00,meteohub,2013-01-02 17:02:00,
2013-01-02 09:07:00,39.0,32.7,29.99,North,-999,-999.0,-999.0,38,0.00,,,0.00,meteohub,2013-01-02 17:07:00,
2013-01-02 09:12:00,39.4,32.7,30.01,North,-999,-999.0,-999.0,38,0.00,,,0.00,meteohub,2013-01-02 17:12:00,
2013-01-02 09:17:00,39.7,33.1,30.01,North,-999,-999.0,-999.0,38,0.00,,,0.00,meteohub,2013-01-02 17:17:00,
2013-01-02 09:22:00,40.1,33.4,30.01,North,-999,-999.0,-999.0,38,0.00,,,0.00,meteohub,2013-01-02 17:22:00,
2013-01-02 09:27:00,40.6,34.0,30.01,North,-999,-999.0,-999.0,38,0.00,,,0.00,meteohub,2013-01-02 17:27:00,
2013-01-02 09:32:00,41.2,34.5,30.01,North,-999,-999.0,-999.0,38,0.00,,,0.00,meteohub,2013-01-02 17:32:00,
2013-01-02 09:37:00,41.7,35.1,30.01,North,-999,-999.0,-999.0,38,0.00,,,0.00,meteohub,2013-01-02 17:37:00,
2013-01-02 09:42:00,42.1,35.1,30.01,North,-999,-999.0,-999.0,38,0.00,,,0.00,meteohub,2013-01-02 17:42:00,
2013-01-02 09:47:00,42.6,35.2,30.01,North,-999,-999.0,-999.0,38,0.00,,,0.00,meteohub,2013-01-02 17:47:00,
2013-01-02 09:52:00,43.0,35.2,30.01,North,-999,-999.0,-999.0,38,0.00,,,0.00,meteohub,2013-01-02 17:52:00,
2013-01-02 09:57:00,43.3,34.9,30.01,North,-999,-999.0,-999.0,38,0.00,,,0.00,meteohub,2013-01-02 17:57:00,
2013-01-02 10:02:00,43.7,34.9,30.01,North,-999,-999.0,-999.0,38,0.00,,,0.00,meteohub,2013-01-02 18:02:00,
2013-01-02 10:07:00,43.7,34.2,30.01,North,-999,-999.0,-999.0,38,0.00,,,0.00,meteohub,2013-01-02 18:07:00,
2013-01-02 10:12:00,44.2,33.6,30.01,North,-999,-999.0,-999.0,39,0.00,,,0.00,meteohub,2013-01-02 18:12:00,
2013-01-02 10:17:00,44.8,33.8,30.01,North,-999,-999.0,-999.0,39,0.00,,,0.00,meteohub,2013-01-02 18:17:00,
2013-01-02 10:22:00,45.1,33.6,30.01,North,-999,-999.0,-999.0,38,0.00,,,0.00,meteohub,2013-01-02 18:22:00,
2013-01-02 10:27:00,45.5,33.6,30.01,North,-999,-999.0,-999.0,38,0.00,,,0.00,meteohub,2013-01-02 18:27:00,
2013-01-02 10:32:00,45.9,33.3,30.01,North,-999,-999.0,-999.0,38,0.00,,,0.00,meteohub,2013-01-02 18:32:00,
2013-01-02 10:37:00,46.2,33.1,30.01,North,-999,-999.0,-999.0,38,0.00,,,0.00,meteohub,2013-01-02 18:37:00,
2013-01-02 10:42:00,46.6,33.1,30.01,North,-999,-999.0,-999.0,38,0.00,,,0.00,meteohub,2013-01-02 18:42:00,
2013-01-02 10:47:00,46.9,32.5,30.01,North,-999,-999.0,-999.0,38,0.00,,,0.00,meteohub,2013-01-02 18:47:00,
2013-01-02 10:52:00,47.3,32.0,30.01,North,-999,-999.0,-999.0,38,0.00,,,0.00,meteohub,2013-01-02 18:52:00,
2013-01-02 10:57:00,47.7,31.8,30.01,North,-999,-999.0,-999.0,38,0.00,,,0.00,meteohub,2013-01-02 18:57:00,
2013-01-02 11:02:00,48.0,32.2,30.01,North,-999,-999.0,-999.0,38,0.00,,,0.00,meteohub,2013-01-02 19:02:00,
2013-01-02 11:07:00,48.4,31.6,30.01,North,-999,-999.0,-999.0,38,0.00,,,0.00,meteohub,2013-01-02 19:07:00,
2013-01-02 11:12:00,48.9,31.6,30.01,North,-999,-999.0,-999.0,38,0.00,,,0.00,meteohub,2013-01-02 19:12:00,
2013-01-02 11:17:00,49.3,31.5,30.01,North,-999,-999.0,-999.0,38,0.00,,,0.00,meteohub,2013-01-02 19:17:00,
2013-01-02 11:22:00,49.6,31.3,30.01,North,-999,-999.0,-999.0,38,0.00,,,0.00,meteohub,2013-01-02 19:22:00,
2013-01-02 11:27:00,50.2,31.3,29.99,North,-999,-999.0,-999.0,38,0.00,,,0.00,meteohub,2013-01-02 19:27:00,
2013-01-02 11:32:00,50.4,31.5,29.99,North,-999,-999.0,-999.0,38,0.00,,,0.00,meteohub,2013-01-02 19:32:00,
2013-01-02 11:37:00,50.7,30.7,29.99,North,-999,-999.0,-999.0,38,0.00,,,0.00,meteohub,2013-01-02 19:37:00,
2013-01-02 11:42:00,51.3,30.6,29.99,North,-999,-999.0,-999.0,38,0.00,,,0.00,meteohub,2013-01-02 19:42:00,
2013-01-02 11:47:00,51.6,30.9,29.99,North,-999,-999.0,-999.0,38,0.00,,,0.00,meteohub,2013-01-02 19:47:00,
2013-01-02 11:52:00,52.0,31.3,29.99,North,-999,-999.0,-999.0,38,0.00,,,0.00,meteohub,2013-01-02 19:52:00,
2013-01-02 11:57:00,52.3,29.8,29.99,North,-999,-999.0,-999.0,38,0.00,,,0.00,meteohub,2013-01-02 19:57:00,
2013-01-02 12:02:00,52.7,29.7,29.99,North,-999,-999.0,-999.0,38,0.00,,,0.00,meteohub,2013-01-02 20:02:00,
2013-01-02 12:07:00,53.1,29.3,29.99,North,-999,-999.0,-999.0,38,0.00,,,0.00,meteohub,2013-01-02 20:07:00,
2013-01-02 12:12:00,53.2,30.2,29.96,North,-999,-999.0,-999.0,38,0.00,,,0.00,meteohub,2013-01-02 20:12:00,
2013-01-02 12:17:00,53.8,30.0,29.96,North,-999,-999.0,-999.0,38,0.00,,,0.00,meteohub,2013-01-02 20:17:00,
2013-01-02 12:22:00,54.0,29.5,29.96,North,-999,-999.0,-999.0,38,0.00,,,0.00,meteohub,2013-01-02 20:22:00,
2013-01-02 12:27:00,54.1,29.1,29.96,North,-999,-999.0,-999.0,38,0.00,,,0.00,meteohub,2013-01-02 20:27:00,
2013-01-02 12:32:00,54.5,29.5,29.96,North,-999,-999.0,-999.0,38,0.00,,,0.00,meteohub,2013-01-02 20:32:00,
2013-01-02 12:37:00,54.7,28.9,29.96,North,-999,-999.0,-999.0,38,0.00,,,0.00,meteohub,2013-01-02 20:37:00,
2013-01-02 12:42:00,55.2,28.8,29.96,North,-999,-999.0,-999.0,39,0.00,,,0.00,meteohub,2013-01-02 20:42:00,
2013-01-02 12:47:00,55.6,29.1,29.96,North,-999,-999.0,-999.0,39,0.00,,,0.00,meteohub,2013-01-02 20:47:00,
2013-01-02 12:52:00,55.8,29.1,29.96,North,-999,-999.0,-999.0,39,0.00,,,0.00,meteohub,2013-01-02 20:52:00,
2013-01-02 12:57:00,55.8,29.8,29.96,North,-999,-999.0,-999.0,39,0.00,,,0.00,meteohub,2013-01-02 20:57:00,
2013-01-02 13:02:00,55.9,29.3,29.96,North,-999,-999.0,-999.0,39,0.00,,,0.00,meteohub,2013-01-02 21:02:00,
2013-01-02 13:07:00,56.1,29.5,29.96,North,-999,-999.0,-999.0,39,0.00,,,0.00,meteohub,2013-01-02 21:07:00,
2013-01-02 13:12:00,56.5,29.8,29.96,North,-999,-999.0,-999.0,39,0.00,,,0.00,meteohub,2013-01-02 21:12:00,
2013-01-02 13:17:00,56.7,30.0,29.96,North,-999,-999.0,-999.0,39,0.00,,,0.00,meteohub,2013-01-02 21:17:00,
2013-01-02 13:22:00,56.7,30.0,29.96,North,-999,-999.0,-999.0,39,0.00,,,0.00,meteohub,2013-01-02 21:22:00,
2013-01-02 13:27:00,56.7,29.3,29.96,North,-999,-999.0,-999.0,39,0.00,,,0.00,meteohub,2013-01-02 21:27:00,
2013-01-02 13:32:00,56.7,29.3,29.96,North,-999,-999.0,-999.0,39,0.00,,,0.00,meteohub,2013-01-02 21:32:00,
2013-01-02 13:37:00,56.7,29.3,29.96,North,-999,-999.0,-999.0,39,0.00,,,0.00,meteohub,2013-01-02 21:37:00,
2013-01-02 13:42:00,56.7,29.3,29.93,North,-999,-999.0,-999.0,39,0.00,,,0.00,meteohub,2013-01-02 21:42:00,
2013-01-02 13:47:00,56.7,29.3,29.93,North,-999,-999.0,-999.0,39,0.00,,,0.00,meteohub,2013-01-02 21:47:00,
2013-01-02 13:52:00,56.8,29.5,29.93,North,-999,-999.0,-999.0,40,0.00,,,0.00,meteohub,2013-01-02 21:52:00,
2013-01-02 13:57:00,56.8,29.5,29.93,North,-999,-999.0,-999.0,40,0.00,,,0.00,meteohub,2013-01-02 21:57:00,
2013-01-02 14:02:00,56.8,28.8,29.93,North,-999,-999.0,-999.0,40,0.00,,,0.00,meteohub,2013-01-02 22:02:00,
2013-01-02 14:07:00,56.8,29.5,29.93,North,-999,-999.0,-999.0,40,0.00,,,0.00,meteohub,2013-01-02 22:07:00,
2013-01-02 14:12:00,57.0,29.7,29.93,North,-999,-999.0,-999.0,40,0.00,,,0.00,meteohub,2013-01-02 22:12:00,
2013-01-02 14:17:00,57.0,29.7,29.93,North,-999,-999.0,-999.0,40,0.00,,,0.00,meteohub,2013-01-02 22:17:00,
2013-01-02 14:22:00,57.2,29.8,29.93,North,-999,-999.0,-999.0,41,0.00,,,0.00,meteohub,2013-01-02 22:22:00,
2013-01-02 14:27:00,57.4,30.0,29.93,North,-999,-999.0,-999.0,41,0.00,,,0.00,meteohub,2013-01-02 22:27:00,
2013-01-02 14:32:00,57.4,30.0,29.93,North,-999,-999.0,-999.0,41,0.00,,,0.00,meteohub,2013-01-02 22:32:00,
2013-01-02 14:37:00,57.6,30.0,29.93,North,-999,-999.0,-999.0,41,0.00,,,0.00,meteohub,2013-01-02 22:37:00,
2013-01-02 14:42:00,57.6,30.0,29.93,North,-999,-999.0,-999.0,41,0.00,,,0.00,meteohub,2013-01-02 22:42:00,
2013-01-02 14:47:00,57.4,30.0,29.93,North,-999,-999.0,-999.0,41,0.00,,,0.00,meteohub,2013-01-02 22:47:00,
2013-01-02 14:52:00,57.6,30.0,29.93,North,-999,-999.0,-999.0,40,0.00,,,0.00,meteohub,2013-01-02 22:52:00,
2013-01-02 14:57:00,57.4,30.0,29.93,North,-999,-999.0,-999.0,40,0.00,,,0.00,meteohub,2013-01-02 22:57:00,
2013-01-02 15:02:00,57.6,30.0,29.93,North,-999,-999.0,-999.0,40,0.00,,,0.00,meteohub,2013-01-02 23:02:00,
2013-01-02 15:07:00,57.6,30.0,29.93,North,-999,-999.0,-999.0,41,0.00,,,0.00,meteohub,2013-01-02 23:07:00,
2013-01-02 15:12:00,57.6,30.0,29.93,North,-999,-999.0,-999.0,41,0.00,,,0.00,meteohub,2013-01-02 23:12:00,
2013-01-02 15:17:00,57.4,30.0,29.93,North,-999,-999.0,-999.0,41,0.00,,,0.00,meteohub,2013-01-02 23:17:00,
2013-01-02 15:22:00,57.2,30.6,29.93,North,-999,-999.0,-999.0,41,0.00,,,0.00,meteohub,2013-01-02 23:22:00,
2013-01-02 15:27:00,57.0,30.4,29.93,North,-999,-999.0,-999.0,41,0.00,,,0.00,meteohub,2013-01-02 23:27:00,
2013-01-02 15:32:00,57.0,30.4,29.93,North,-999,-999.0,-999.0,41,0.00,,,0.00,meteohub,2013-01-02 23:32:00,
2013-01-02 15:37:00,57.0,30.4,29.93,North,-999,-999.0,-999.0,42,0.00,,,0.00,meteohub,2013-01-02 23:37:00,
2013-01-02 15:42:00,56.8,30.2,29.93,North,-999,-999.0,-999.0,42,0.00,,,0.00,meteohub,2013-01-02 23:42:00,
2013-01-02 15:47:00,56.8,30.2,29.93,North,-999,-999.0,-999.0,42,0.00,,,0.00,meteohub,2013-01-02 23:47:00,
2013-01-02 15:52:00,56.7,30.0,29.93,North,-999,-999.0,-999.0,42,0.00,,,0.00,meteohub,2013-01-02 23:52:00,
2013-01-02 15:57:00,56.5,29.8,29.90,North,-999,-999.0,-999.0,42,0.00,,,0.00,meteohub,2013-01-02 23:57:00,
2013-01-02 16:02:00,56.3,30.4,29.90,North,-999,-999.0,-999.0,42,0.00,,,0.00,meteohub,2013-01-03 00:02:00,
2013-01-02 16:07:00,56.3,30.4,29.90,North,-999,-999.0,-999.0,41,0.00,,,0.00,meteohub,2013-01-03 00:07:00,
2013-01-02 16:12:00,55.9,30.0,29.90,North,-999,-999.0,-999.0,41,0.00,,,0.00,meteohub,2013-01-03 00:12:00,
2013-01-02 16:17:00,55.9,30.0,29.90,North,-999,-999.0,-999.0,41,0.00,,,0.00,meteohub,2013-01-03 00:17:00,
2013-01-02 16:22:00,55.6,29.7,29.90,North,-999,-999.0,-999.0,41,0.00,,,0.00,meteohub,2013-01-03 00:22:00,
2013-01-02 16:27:00,55.2,30.0,29.90,North,-999,-999.0,-999.0,41,0.00,,,0.00,meteohub,2013-01-03 00:27:00,
2013-01-02 16:32:00,54.7,30.9,29.90,North,-999,-999.0,-999.0,41,0.00,,,0.00,meteohub,2013-01-03 00:32:00,
2013-01-02 16:37:00,54.1,32.7,29.90,North,-999,-999.0,-999.0,41,0.00,,,0.00,meteohub,2013-01-03 00:37:00,
2013-01-02 16:42:00,53.2,33.1,29.90,North,-999,-999.0,-999.0,41,0.00,,,0.00,meteohub,2013-01-03 00:42:00,
2013-01-02 16:47:00,52.9,33.3,29.90,North,-999,-999.0,-999.0,41,0.00,,,0.00,meteohub,2013-01-03 00:47:00,
2013-01-02 16:52:00,52.5,33.4,29.90,North,-999,-999.0,-999.0,41,0.00,,,0.00,meteohub,2013-01-03 00:52:00,
2013-01-02 16:57:00,52.0,32.9,29.90,North,-999,-999.0,-999.0,41,0.00,,,0.00,meteohub,2013-01-03 00:57:00,
2013-01-02 17:02:00,51.4,32.9,29.90,North,-999,-999.0,-999.0,41,0.00,,,0.00,meteohub,2013-01-03 01:02:00,
2013-01-02 17:08:00,51.1,33.1,29.90,North,-999,-999.0,-999.0,41,0.00,,,0.00,meteohub,2013-01-03 01:08:00,
2013-01-02 17:13:00,50.5,33.1,29.90,North,-999,-999.0,-999.0,41,0.00,,,0.00,meteohub,2013-01-03 01:13:00,
2013-01-02 17:18:00,50.2,32.7,29.90,North,-999,-999.0,-999.0,40,0.00,,,0.00,meteohub,2013-01-03 01:18:00,
2013-01-02 17:23:00,50.0,32.5,29.90,North,-999,-999.0,-999.0,40,0.00,,,0.00,meteohub,2013-01-03 01:23:00,
2013-01-02 17:28:00,49.6,32.7,29.90,North,-999,-999.0,-999.0,40,0.00,,,0.00,meteohub,2013-01-03 01:28:00,
2013-01-02 17:33:00,49.3,32.9,29.90,North,-999,-999.0,-999.0,40,0.00,,,0.00,meteohub,2013-01-03 01:33:00,
2013-01-02 17:38:00,48.9,32.5,29.90,North,-999,-999.0,-999.0,40,0.00,,,0.00,meteohub,2013-01-03 01:38:00,
2013-01-02 17:43:00,48.7,32.4,29.93,North,-999,-999.0,-999.0,40,0.00,,,0.00,meteohub,2013-01-03 01:43:00,
2013-01-02 17:49:00,48.4,32.5,29.93,North,-999,-999.0,-999.0,40,0.00,,,0.00,meteohub,2013-01-03 01:49:00,
2013-01-02 17:54:00,48.0,32.5,29.93,North,-999,-999.0,-999.0,40,0.00,,,0.00,meteohub,2013-01-03 01:54:00,
2013-01-02 17:59:00,47.8,32.5,29.93,North,-999,-999.0,-999.0,40,0.00,,,0.00,meteohub,2013-01-03 01:59:00,
2013-01-02 18:04:00,47.7,31.8,29.93,North,-999,-999.0,-999.0,40,0.00,,,0.00,meteohub,2013-01-03 02:04:00,
2013-01-02 18:09:00,47.5,31.6,29.93,North,-999,-999.0,-999.0,40,0.00,,,0.00,meteohub,2013-01-03 02:09:00,
2013-01-02 18:14:00,47.3,31.5,29.93,North,-999,-999.0,-999.0,41,0.00,,,0.00,meteohub,2013-01-03 02:14:00,
2013-01-02 18:19:00,47.3,32.0,29.93,North,-999,-999.0,-999.0,40,0.00,,,0.00,meteohub,2013-01-03 02:19:00,
2013-01-02 18:24:00,46.9,31.6,29.93,North,-999,-999.0,-999.0,40,0.00,,,0.00,meteohub,2013-01-03 02:24:00,
2013-01-02 18:29:00,46.8,31.5,29.93,North,-999,-999.0,-999.0,40,0.00,,,0.00,meteohub,2013-01-03 02:29:00,
2013-01-02 18:35:00,46.6,31.3,29.93,North,-999,-999.0,-999.0,40,0.00,,,0.00,meteohub,2013-01-03 02:35:00,
2013-01-02 18:40:00,46.4,31.1,29.93,North,-999,-999.0,-999.0,40,0.00,,,0.00,meteohub,2013-01-03 02:40:00,
2013-01-02 18:45:00,46.4,31.1,29.93,North,-999,-999.0,-999.0,40,0.00,,,0.00,meteohub,2013-01-03 02:45:00,
2013-01-02 18:50:00,46.2,31.5,29.93,North,-999,-999.0,-999.0,40,0.00,,,0.00,meteohub,2013-01-03 02:50:00,
2013-01-02 18:55:00,46.0,31.3,29.93,North,-999,-999.0,-999.0,40,0.00,,,0.00,meteohub,2013-01-03 02:55:00,
2013-01-02 19:00:00,45.9,31.1,29.93,North,-999,-999.0,-999.0,40,0.00,,,0.00,meteohub,2013-01-03 03:00:00,
2013-01-02 19:05:00,45.7,30.9,29.93,North,-999,-999.0,-999.0,40,0.00,,,0.00,meteohub,2013-01-03 03:05:00,
2013-01-02 19:10:00,45.5,30.7,29.93,North,-999,-999.0,-999.0,40,0.00,,,0.00,meteohub,2013-01-03 03:10:00,
2013-01-02 19:16:00,45.3,30.6,29.93,North,-999,-999.0,-999.0,40,0.00,,,0.00,meteohub,2013-01-03 03:16:00,
2013-01-02 19:21:00,45.1,30.4,29.93,North,-999,-999.0,-999.0,40,0.00,,,0.00,meteohub,2013-01-03 03:21:00,
2013-01-02 19:26:00,44.8,30.6,29.93,North,-999,-999.0,-999.0,40,0.00,,,0.00,meteohub,2013-01-03 03:26:00,
2013-01-02 19:32:00,44.6,30.4,29.93,North,-999,-999.0,-999.0,40,0.00,,,0.00,meteohub,2013-01-03 03:32:00,
2013-01-02 19:42:00,44.2,30.0,29.93,North,-999,-999.0,-999.0,40,0.00,,,0.00,meteohub,2013-01-03 03:42:00,
2013-01-02 19:47:00,44.2,30.4,29.93,North,-999,-999.0,-999.0,40,0.00,,,0.00,meteohub,2013-01-03 03:47:00,
2013-01-02 19:52:00,44.1,30.2,29.93,North,-999,-999.0,-999.0,40,0.00,,,0.00,meteohub,2013-01-03 03:52:00,
2013-01-02 19:57:00,43.9,30.0,29.93,North,-999,-999.0,-999.0,40,0.00,,,0.00,meteohub,2013-01-03 03:57:00,
2013-01-02 20:02:00,43.7,30.4,29.93,North,-999,-999.0,-999.0,40,0.00,,,0.00,meteohub,2013-01-03 04:02:00,
2013-01-02 20:07:00,43.5,30.2,29.93,North,-999,-999.0,-999.0,40,0.00,,,0.00,meteohub,2013-01-03 04:07:00,
2013-01-02 20:12:00,43.3,30.0,29.93,North,-999,-999.0,-999.0,40,0.00,,,0.00,meteohub,2013-01-03 04:12:00,
2013-01-02 20:17:00,43.3,30.0,29.93,North,-999,-999.0,-999.0,40,0.00,,,0.00,meteohub,2013-01-03 04:17:00,
2013-01-02 20:22:00,43.0,29.7,29.93,North,-999,-999.0,-999.0,40,0.00,,,0.00,meteohub,2013-01-03 04:22:00,
2013-01-02 20:27:00,42.8,29.8,29.93,North,-999,-999.0,-999.0,40,0.00,,,0.00,meteohub,2013-01-03 04:27:00,
2013-01-02 20:32:00,42.8,29.5,29.93,North,-999,-999.0,-999.0,40,0.00,,,0.00,meteohub,2013-01-03 04:32:00,
2013-01-02 20:37:00,42.6,29.3,29.93,North,-999,-999.0,-999.0,40,0.00,,,0.00,meteohub,2013-01-03 04:37:00,
2013-01-02 20:42:00,42.6,29.7,29.93,North,-999,-999.0,-999.0,40,0.00,,,0.00,meteohub,2013-01-03 04:42:00,
2013-01-02 20:47:00,42.4,29.5,29.93,North,-999,-999.0,-999.0,39,0.00,,,0.00,meteohub,2013-01-03 04:47:00,
2013-01-02 20:52:00,42.4,29.5,29.93,North,-999,-999.0,-999.0,39,0.00,,,0.00,meteohub,2013-01-03 04:52:00,
2013-01-02 20:58:00,42.3,29.3,29.93,North,-999,-999.0,-999.0,39,0.00,,,0.00,meteohub,2013-01-03 04:58:00,
2013-01-02 21:00:00,42.3,29.3,29.93,North,-999,-999.0,-999.0,39,0.00,,,0.00,meteohub,2013-01-03 05:00:00,
2013-01-02 21:01:00,42.3,29.3,29.93,North,-999,-999.0,-999.0,39,0.00,,,0.00,meteohub,2013-01-03 05:01:00,
2013-01-02 21:03:00,42.3,29.3,29.93,North,-999,-999.0,-999.0,39,0.00,,,0.00,meteohub,2013-01-03 05:03:00,
2013-01-02 21:08:00,42.1,29.1,29.93,North,-999,-999.0,-999.0,39,0.00,,,0.00,meteohub,2013-01-03 05:08:00,
2013-01-02 21:11:00,42.1,29.1,29.93,North,-999,-999.0,-999.0,39,0.00,,,0.00,meteohub,2013-01-03 05:11:00,
2013-01-02 21:16:00,42.1,28.8,29.93,North,-999,-999.0,-999.0,39,0.00,,,0.00,meteohub,2013-01-03 05:16:00,
2013-01-02 21:21:00,42.1,29.1,29.93,North,-999,-999.0,-999.0,39,0.00,,,0.00,meteohub,2013-01-03 05:21:00,
2013-01-02 21:26:00,41.9,28.9,29.93,North,-999,-999.0,-999.0,39,0.00,,,0.00,meteohub,2013-01-03 05:26:00,
2013-01-02 21:31:00,41.7,28.9,29.93,North,-999,-999.0,-999.0,39,0.00,,,0.00,meteohub,2013-01-03 05:31:00,
2013-01-02 21:36:00,41.5,29.1,29.93,North,-999,-999.0,-999.0,38,0.00,,,0.00,meteohub,2013-01-03 05:36:00,
2013-01-02 21:41:00,41.5,29.1,29.93,North,-999,-999.0,-999.0,38,0.00,,,0.00,meteohub,2013-01-03 05:41:00,
2013-01-02 21:46:00,41.5,29.1,29.93,North,-999,-999.0,-999.0,38,0.00,,,0.00,meteohub,2013-01-03 05:46:00,
2013-01-02 21:51:00,41.5,29.1,29.93,North,-999,-999.0,-999.0,38,0.00,,,0.00,meteohub,2013-01-03 05:51:00,
2013-01-02 21:57:00,41.5,29.1,29.93,North,-999,-999.0,-999.0,38,0.00,,,0.00,meteohub,2013-01-03 05:57:00,
2013-01-02 22:02:00,41.4,28.9,29.93,North,-999,-999.0,-999.0,38,0.00,,,0.00,meteohub,2013-01-03 06:02:00,
2013-01-02 22:07:00,41.2,29.1,29.93,North,-999,-999.0,-999.0,38,0.00,,,0.00,meteohub,2013-01-03 06:07:00,
2013-01-02 22:12:00,41.2,29.1,29.93,North,-999,-999.0,-999.0,38,0.00,,,0.00,meteohub,2013-01-03 06:12:00,
2013-01-02 22:17:00,41.2,29.1,29.93,North,-999,-999.0,-999.0,38,0.00,,,0.00,meteohub,2013-01-03 06:17:00,
2013-01-02 22:22:00,41.2,29.1,29.93,North,-999,-999.0,-999.0,38,0.00,,,0.00,meteohub,2013-01-03 06:22:00,
2013-01-02 22:27:00,41.2,29.1,29.93,North,-999,-999.0,-999.0,38,0.00,,,0.00,meteohub,2013-01-03 06:27:00,
2013-01-02 22:32:00,41.2,29.1,29.93,North,-999,-999.0,-999.0,38,0.00,,,0.00,meteohub,2013-01-03 06:32:00,
2013-01-02 22:37:00,41.2,29.1,29.93,North,-999,-999.0,-999.0,38,0.00,,,0.00,meteohub,2013-01-03 06:37:00,
2013-01-02 22:42:00,41.0,28.9,29.93,North,-999,-999.0,-999.0,38,0.00,,,0.00,meteohub,2013-01-03 06:42:00,
2013-01-02 22:47:00,41.0,28.9,29.93,North,-999,-999.0,-999.0,38,0.00,,,0.00,meteohub,2013-01-03 06:47:00,
2013-01-02 22:52:00,40.8,29.1,29.93,North,-999,-999.0,-999.0,38,0.00,,,0.00,meteohub,2013-01-03 06:52:00,
2013-01-02 22:57:00,40.8,29.1,29.93,North,-999,-999.0,-999.0,38,0.00,,,0.00,meteohub,2013-01-03 06:57:00,
2013-01-02 23:02:00,40.8,29.1,29.93,North,-999,-999.0,-999.0,38,0.00,,,0.00,meteohub,2013-01-03 07:02:00,
2013-01-02 23:07:00,40.8,29.1,29.93,North,-999,-999.0,-999.0,38,0.00,,,0.00,meteohub,2013-01-03 07:07:00,
2013-01-02 23:12:00,40.6,29.1,29.93,North,-999,-999.0,-999.0,38,0.00,,,0.00,meteohub,2013-01-03 07:12:00,
2013-01-02 23:17:00,40.6,29.5,29.93,North,-999,-999.0,-999.0,38,0.00,,,0.00,meteohub,2013-01-03 07:17:00,
2013-01-02 23:22:00,40.5,29.3,29.93,North,-999,-999.0,-999.0,38,0.00,,,0.00,meteohub,2013-01-03 07:22:00,
2013-01-02 23:27:00,40.3,29.1,29.93,North,-999,-999.0,-999.0,38,0.00,,,0.00,meteohub,2013-01-03 07:27:00,
2013-01-02 23:32:00,40.3,29.5,29.93,North,-999,-999.0,-999.0,39,0.00,,,0.00,meteohub,2013-01-03 07:32:00,
2013-01-02 23:37:00,40.1,29.3,29.93,North,-999,-999.0,-999.0,39,0.00,,,0.00,meteohub,2013-01-03 07:37:00,
2013-01-02 23:42:00,40.1,29.7,29.93,North,-999,-999.0,-999.0,40,0.00,,,0.00,meteohub,2013-01-03 07:42:00,
2013-01-02 23:47:00,39.9,29.5,29.93,North,-999,-999.0,-999.0,40,0.00,,,0.00,meteohub,2013-01-03 07:47:00,
2013-01-02 23:52:00,39.9,29.5,29.93,North,-999,-999.0,-999.0,40,0.00,,,0.00,meteohub,2013-01-03 07:52:00,
2013-01-02 23:57:00,39.7,29.3,29.93,North,-999,-999.0,-999.0,40,0.00,,,0.00,meteohub,2013-01-03 07:57:00,